1305590432266,45.0638
1305590492266,45.1293
1305590552266,45.0895
1305590612266,45.1929
1305590672266,45.1113
1305590732266,45.0688
1305590792266,44.9610
1305590852266,45.0628
1305590912266,45.1694
1305590972266,45.0488
1305591032266,45.2561
1305591092266,45.0786
1305591152266,45.1497
1305591212266,44.9655
1305591272266,44.9741
1305591332266,45.1549
1305591392266,44.9949
1305591452266,45.1481
1305591512266,44.9951
1305591572266,45.1201
1305591632266,45.0544
1305591692266,45.0340
1305591752266,45.0587
1305591812266,45.1869
1305591872266,45.1319
1305591932266,45.2380
1305591992266,45.0881
1305592052266,45.0235
1305592112266,45.0162
1305592172266,45.1300
1305592232266,45.0971
1305592292266,44.9808
1305592352266,45.1338
1305592412266,45.0871
1305592472266,45.0332
1305592532266,44.9789
1305592592266,44.9556
1305592652266,45.0349
1305592712266,45.1431
1305592772266,45.1377
1305592832266,45.1028
1305592892266,45.1249
1305592952266,45.1193
1305593012266,45.0733
1305593072266,45.0987
1305593132266,45.0202
1305593192266,45.1165
1305593252266,44.9868
1305593312266,45.0645
1305593372266,44.9333
1305593432266,45.1568
1305593492266,44.9898
1305593552266,45.1109
1305593612266,44.9401
1305593672266,45.0602
1305593732266,45.1998
1305593792266,45.1037
1305593852266,45.0807
1305593912266,45.1352
1305593972266,44.9132
1305594032276,45.0044
1305594092276,45.0347
1305594152276,45.0390
1305594212276,45.0152
1305594272276,45.0749
1305594332276,45.0208
1305594392276,44.9507
1305594452276,44.9434
1305594512276,45.0065
1305594572276,45.0388
1305594632276,45.0623
1305594692276,45.0371
1305594752276,45.1580
1305594812276,45.0236
1305594872276,45.0052
1305594932276,45.0459
1305594992276,45.0359
1305595052276,45.0681
1305595112276,45.1541
1305595172276,45.0525
1305595232276,45.0160
1305595292276,45.0458
1305595352276,45.1328
1305595412276,45.1915
1305595472276,45.1628
1305595532276,45.0651
1305595592276,45.0438
1305595652276,45.1069
1305595712276,45.1038
1305595772276,45.2593
1305595832276,45.1547
1305595892276,45.0571
1305595952276,45.0685
1305596012276,45.0395
1305596072276,45.0957
1305596132276,45.1594
1305596192276,45.1468
1305596252276,45.1962
1305596312276,45.0772
1305596372276,45.1794
1305596432276,45.0602
1305596492276,45.1742
1305596552276,45.2192
1305596612276,45.3157
1305596672276,45.2351
1305596732276,45.2103
1305596792276,45.2348
1305596852276,45.4158
1305596912276,45.1785
1305596972276,45.2627
1305597032276,45.2359
1305597092276,45.2111
1305597152276,45.3276
1305597212276,45.2257
1305597272276,45.2843
1305597332276,45.2019
1305597392276,45.2148
1305597452276,45.1670
1305597512276,45.2307
1305597572276,45.1918
1305597632287,45.2935
1305597692287,45.2659
1305597752287,45.2637
1305597812287,45.3076
1305597872287,45.3097
1305597932287,45.1315
1305597992287,45.2256
1305598052287,45.3483
1305598112287,45.3131
1305598172287,45.2756
1305598232287,45.3934
1305598292287,45.4548
1305598352287,45.1585
1305598412287,45.4493
1305598472287,45.3644
1305598532287,45.3961
1305598592287,45.1943
1305598652287,45.3150
1305598712287,45.3763
1305598772287,45.1838
1305598832287,45.2352
1305598892287,45.1729
1305598952287,45.1836
1305599012287,45.3367
1305599072287,45.2854
1305599132287,45.3060
1305599192287,45.3435
1305599252287,45.2189
1305599312287,45.2775
1305599372287,45.1183
1305599432287,45.2555
1305599492287,45.2847
1305599552287,45.1150
1305599612287,45.0844
1305599672287,45.1587
1305599732287,45.2226
1305599792287,45.1026
1305599852287,45.2267
1305599912287,45.2642
1305599972287,45.3679
1305600032287,45.2191
1305600092287,45.1642
1305600152287,45.2502
1305600212287,45.0940
1305600272287,45.1448
1305600332287,45.1646
1305600392287,45.2442
1305600452287,45.0675
1305600512287,45.0620
1305600572287,45.2421
1305600632287,45.2036
1305600692287,45.0836
1305600752287,45.2020
1305600812287,45.1758
1305600872287,45.2354
1305600932287,45.2314
1305600992287,45.1372
1305601052287,45.1730
1305601112287,45.1475
1305601172287,45.0095
1305601232297,45.1776
1305601292297,45.0990
1305601352297,45.1848
1305601412297,45.1619
1305601472297,45.1760
1305601532297,45.2469
1305601592297,45.1393
1305601652297,45.1635
1305601712297,45.1965
1305601772297,45.2136
1305601832297,45.2426
1305601892297,45.1211
1305602432297,45.0922
1305602492297,45.0788
1305602552297,45.0924
1305602612297,45.0638
1305602672297,45.2864
1305602732297,45.2597
1305602792297,45.2593
1305602852297,45.2102
1305602912297,45.2504
1305602972297,45.2628
1305603032297,45.1106
1305603092297,45.0869
1305603152297,45.1543
1305603212297,45.2262
1305603272297,45.2930
1305603332297,45.2758
1305603392297,45.3970
1305603452297,45.3024
1305603512297,45.1979
1305603572297,45.2291
1305603632297,45.2373
1305603692297,45.1157
1305603752297,45.1731
1305603812297,45.2417
1305603872297,45.1840
1305603932297,45.1411
1305603992297,45.1739
1305604052297,45.0742
1305604112297,45.2808
1305604172297,45.3063
1305604232297,45.1534
1305604292297,45.0833
1305604352297,45.2152
1305604412297,45.1170
1305604472297,45.2320
1305604532297,45.2080
1305604592297,45.1889
1305604652297,45.1980
1305604712297,45.1305
1305604772297,45.0809
1305604832307,45.1540
1305604892307,45.1533
1305604952307,45.0936
1305605012307,45.2828
1305605072307,45.1298
1305605132307,45.1644
1305605192307,45.1870
1305605252307,45.2388
1305605312307,45.2263
1305605372307,45.1108
1305605432307,45.2601
1305605492307,45.2447
1305605552307,45.1097
1305605612307,45.0926
1305605672307,45.2070
1305605732307,45.2182
1305605792307,45.1493
1305605852307,45.2213
1305605912307,45.3103
1305605972307,45.3223
1305606032307,45.1543
1305606092307,45.1847
1305606152307,45.2188
1305606212307,45.0653
1305606272307,45.2103
1305606332307,45.0571
1305606392307,45.1580
1305606452307,45.1157
1305606512307,45.1974
1305606572307,45.0959
1305606632307,45.0591
1305606692307,45.1742
1305606752307,45.2186
1305606812307,45.1884
1305606872307,45.1527
1305606932307,45.2813
1305606992307,45.0694
1305607052307,45.1377
1305607112307,45.0002
1305607172307,45.2792
1305607232307,44.9496
1305607292307,45.0674
1305607352307,45.0678
1305607412307,45.0413
1305607472307,44.9876
1305607532307,45.0320
1305607592307,45.1902
1305607652307,45.0139
1305607712307,45.1237
1305607772307,45.0814
1305607832307,45.0674
1305607892307,45.0046
1305607952307,45.0232
1305608012307,45.0315
1305608072307,45.0694
1305608132307,45.0140
1305608192307,44.9825
1305608252307,45.1365
1305608312307,45.0671
1305608372307,44.9529
1305608432317,45.0784
1305608492317,45.0393
1305608552317,45.0109
1305608612317,45.0919
1305608672317,44.8628
1305608732317,45.1411
1305608792317,45.1506
1305608852317,44.9627
1305608912317,45.0661
1305608972317,44.9497
1305609032317,45.1108
1305609092317,44.9226
1305609152317,45.0145
1305609212317,44.9554
1305609272317,45.1351
1305609332317,45.0427
1305609392317,45.0416
1305609452317,45.1356
1305609512317,45.1183
1305609572317,44.9974
1305609632317,44.8419
1305609692317,45.0490
1305609752317,44.9679
1305609812317,44.8740
1305609872317,44.8622
1305609932317,44.9180
1305609992317,44.8604
1305610052317,45.0002
1305610112317,45.0001
1305610172317,44.9314
1305610232317,44.9223
1305610292317,44.8682
1305610352317,45.0124
1305610412317,44.9195
1305610472317,44.9022
1305610532317,44.8863
1305610592317,44.9845
1305610652317,45.0034
1305610712317,44.9405
1305610772317,44.9688
1305610832317,44.9084
1305610892317,44.9336
1305610952317,44.9541
1305611012317,44.9083
1305611072317,44.8647
1305611132317,44.9117
1305611192317,44.9697
1305611252317,44.8529
1305611312317,44.8967
1305611372317,45.0310
1305611432317,44.8682
1305611492317,44.9501
1305611552317,44.9172
1305611612317,44.9356
1305611672317,45.0039
1305611732317,44.8096
1305611792317,44.8660
1305611852317,44.9247
1305611912317,44.8340
1305611972317,44.8955
1305612032327,44.9980
1305612092326,44.9840
1305612152326,44.9801
1305612212326,44.8462
1305612272326,44.9126
1305612332326,44.9414
1305612392326,44.8471
1305612452326,44.8081
1305612512326,44.9128
1305612572326,44.8707
1305612632326,44.8084
1305612692326,44.9163
1305612752326,44.9438
1305612812326,44.8097
1305612872326,44.9739
1305612932326,44.8337
1305612992326,44.7193
1305613052326,44.9094
1305613112326,45.0002
1305613172327,44.9411
1305613232327,44.8231
1305613292327,44.8975
1305613352327,44.9539
1305613412327,44.8521
1305613472326,44.9535
1305613532326,44.7876
1305613592326,44.9036
1305613652326,45.0107
1305613712326,44.9083
1305613772326,44.9174
1305613832326,44.9027
1305613892326,44.9117
1305613952326,44.9306
1305614012326,44.7816
1305614072326,44.9330
1305614132326,44.9950
1305614192326,44.8325
1305614252326,44.9727
1305614312326,44.8896
1305614372326,44.7932
1305614432326,44.7890
1305614492326,44.9605
1305614552327,44.8657
1305614612327,44.8380
1305614672327,44.6670
1305614732327,44.7565
1305614792326,44.7962
1305614852326,44.7875
1305614912326,44.9907
1305614972326,44.9099
1305615032326,44.8185
1305615092326,44.9587
1305615152326,44.7769
1305615212326,44.7647
1305615272326,44.9226
1305615332326,44.8114
1305615392326,44.9807
1305615452326,44.8426
1305615512326,44.9188
1305615572326,44.8762
1305615632336,44.6943
1305615692336,44.6886
1305615752336,44.8908
1305615812336,44.9539
1305615872336,44.8093
1305615932336,44.7533
1305615992336,44.8645
1305616052336,44.6554
1305616112336,44.6000
1305616172336,44.7643
1305616232336,44.6930
1305616292336,44.8735
1305616352336,44.6766
1305616412336,44.8022
1305616472336,44.6019
1305616532336,44.7761
1305616592336,44.7281
1305616652336,44.7486
1305616712336,44.7610
1305616772336,44.8289
1305616832336,44.6798
1305616892336,44.8157
1305616952336,44.7318
1305617012336,44.7286
1305617072336,44.8469
1305617132336,44.8827
1305617192336,44.7343
1305617252336,44.8480
1305617312336,44.8068
1305617372336,44.7385
1305617432336,44.8056
1305617492336,44.8063
1305617552336,44.8347
1305617612336,44.7109
1305617672336,44.7973
1305617732336,44.8056
1305617792336,44.8913
1305617852336,44.8491
1305617912336,44.9523
1305617972336,44.8625
1305618032336,44.7091
1305618092336,44.7757
1305618152336,44.8028
1305618212336,44.7834
1305618272336,44.7989
1305618332336,44.6859
1305618392336,44.8358
1305618452336,44.9833
1305618512336,44.7313
1305618572336,44.8377
1305618632336,44.5617
1305618692336,44.6430
1305618752336,44.8818
1305618812336,44.7023
1305618872336,44.7714
1305618932336,44.7717
1305618992336,44.7574
1305619052336,44.7150
1305619112336,44.7023
1305619172336,44.8597
1305619232346,44.7149
1305619292346,44.6944
1305619352346,44.8771
1305619412346,44.7760
1305619472346,44.8674
1305619532346,44.7563
1305619592346,44.7360
1305619652346,44.8854
1305619712346,44.8520
1305619772346,44.7901
1305619832346,44.8199
1305619892346,44.7457
1305619952346,44.6580
1305620012346,44.7981
1305620072346,44.9906
1305620132346,44.5446
1305620192346,44.8571
1305620252346,44.7824
1305620312346,44.7760
1305620372346,44.6148
1305620432346,44.8016
1305620492346,44.6920
1305620552346,44.6923
1305620612346,44.7521
1305620672346,44.7812
1305620732346,44.8542
1305620792346,44.7617
1305620852346,44.8710
1305620912346,44.8556
1305620972346,44.6594
1305621032346,44.6921
1305621092346,44.6959
1305621152346,44.7771
1305621212346,44.6848
1305621272346,44.8474
1305621332346,44.9080
1305621392346,44.7807
1305621452346,44.8314
1305621512346,44.8107
1305621572346,44.7462
1305621632346,44.6781
1305621692346,44.8850
1305621752346,44.7071
1305621812346,44.7540
1305621872346,44.8661
1305621932346,44.8489
1305621992346,44.9314
1305622052346,44.6957
1305622112346,44.7774
1305622172346,44.7701
1305622232346,44.8148
1305622292346,44.8682
1305622352346,44.9414
1305622412346,44.9132
1305622472346,44.8806
1305622532346,44.8168
1305622592346,44.7596
1305622652346,44.8500
1305622712346,44.9375
1305622772346,44.6332
1305622832356,44.7761
1305622892356,44.8470
1305622952356,44.7355
1305623012356,44.9199
1305623072356,44.6928
1305623132356,44.8665
1305623192356,44.7993
1305623252356,44.8065
1305623312356,44.7947
1305623372356,44.8545
1305623432356,44.8327
1305623492356,44.8068
1305623552356,44.7554
1305623612356,44.9553
1305623672356,44.8169
1305623732356,44.7199
1305623792356,44.8941
1305623852356,44.8644
1305623912356,44.7220
1305623972356,44.7509
1305624032356,44.8580
1305624092356,44.8562
1305624152356,44.7089
1305624212356,44.7629
1305624272356,44.8134
1305624332356,44.7977
1305624392356,44.6509
1305624452356,44.7198
1305624512356,44.8657
1305624572356,44.8023
1305624632356,44.6872
1305624692356,44.9283
1305624752356,44.6741
1305624812356,44.8083
1305624872356,44.8020
1305624932356,44.7246
1305624992356,44.8025
1305625052356,44.7208
1305625112356,44.8608
1305625172356,44.8373
1305625232356,44.7792
1305625292356,44.8333
1305625352356,44.8089
1305625412356,44.7373
1305625472356,44.6132
1305625532356,44.7356
1305625592356,44.7332
1305625652356,44.7416
1305625712356,44.7386
1305625772356,44.7780
1305625832356,44.8526
1305625892356,44.8026
1305625952356,44.6558
1305626012356,44.8181
1305626072356,44.6130
1305626132356,44.6795
1305626192356,44.7569
1305626252356,44.7608
1305626312356,44.7110
1305626372356,44.6616
1305626432366,44.8143
1305626492366,44.8788
1305626552366,44.8451
1305626612366,44.6231
1305626672366,44.8268
1305626732366,44.8130
1305626792366,44.7901
1305626852366,44.7696
1305626912366,44.4988
1305626972366,44.7031
1305627032366,44.4993
1305627092366,44.6877
1305627152366,44.5948
1305627212366,44.6562
1305627272366,44.7251
1305627332366,44.5851
1305627392366,44.5733
1305627452366,44.7159
1305627512366,44.6809
1305627572366,44.6995
1305627632366,44.5889
1305627692366,44.7187
1305627752366,44.7893
1305627812366,44.7465
1305627872366,44.8389
1305627932366,44.7982
1305627992366,44.8170
1305628052366,44.7721
1305628112366,44.9014
1305628172366,44.7996
1305628232366,44.8393
1305628292366,44.8135
1305628352366,44.8950
1305628412366,44.6914
1305628472366,44.9033
1305628532366,44.6042
1305628592366,44.8189
1305628652366,44.7847
1305628712366,44.8876
1305628772366,44.6601
1305628832366,44.7688
1305628892366,44.7683
1305628952366,44.9361
1305629012366,44.7973
1305629072366,44.7313
1305629132366,44.8041
1305629192366,44.9387
1305629252366,44.7131
1305629312366,44.7208
1305629372366,44.7557
1305629432366,44.8101
1305629492366,44.8402
1305629552366,44.8061
1305629612366,44.6717
1305629672366,44.7033
1305629732366,44.8591
1305629792366,44.8055
1305629852366,44.7254
1305629912366,44.7115
1305629972366,44.8508
1305630032375,44.7475
1305630092375,44.9676
1305630152375,44.8193
1305630212375,44.8078
1305630272375,44.8633
1305630332375,44.7327
1305630392375,44.9168
1305630452375,44.8149
1305630512375,44.8716
1305630572375,44.9155
1305630632375,44.8366
1305630692375,44.8633
1305630752375,44.6735
1305630812375,44.7084
1305630872375,44.8955
1305630932375,44.7612
1305630992375,44.8355
1305631052375,44.7102
1305631112375,44.6964
1305631172375,44.7153
1305631232375,44.6767
1305631292375,44.6804
1305631352375,44.7878
1305631412375,44.7493
1305631472375,44.7954
1305631532375,44.8187
1305631592375,44.6285
1305631652375,44.9024
1305631712375,44.7679
1305631772375,44.6766
1305631832375,44.6147
1305631892375,44.8554
1305631952375,44.7932
1305632012375,44.7788
1305632072375,44.8173
1305632132375,44.7710
1305632192375,44.7153
1305632252375,44.6529
1305632312375,44.8944
1305632372375,44.7863
1305632432375,44.8372
1305632492375,44.5591
1305632552375,44.7088
1305632612375,44.7901
1305632672375,44.6468
1305632732375,44.7663
1305632792375,44.6829
1305632852375,44.8616
1305632912375,44.7107
1305632972375,44.7651
1305633032375,44.9029
1305633092375,44.7259
1305633152375,44.7554
1305633212375,44.8407
1305633272375,44.8099
1305633332375,44.8466
1305633392375,44.8634
1305633452375,44.8288
1305633512375,44.8031
1305633572375,44.8406
1305633632385,44.8098
1305633692385,44.8655
1305633752385,44.9305
1305633812385,44.8774
1305633872385,44.9567
1305633932385,44.8542
1305633992385,44.8807
1305634052385,44.8727
1305634112385,44.8308
1305634172385,44.9427
1305634232385,44.9314
1305634292385,45.0108
1305634352385,44.9088
1305634412385,44.9024
1305634472385,44.8757
1305634532385,44.9320
1305634592385,44.9519
1305634652385,44.9568
1305634712385,45.0193
1305634772385,45.0173
1305634832385,44.9438
1305634892385,44.9622
1305634952385,44.8451
1305635012385,45.0183
1305635072385,44.8795
1305635132385,44.9350
1305635192385,44.8445
1305635252385,44.9073
1305635312385,44.9920
1305635372385,45.0033
1305635432385,44.9053
1305635492385,44.9245
1305635552385,44.8980
1305635612385,44.9771
1305635672385,44.9991
1305635732385,44.9160
1305635792385,44.9395
1305635852385,45.0712
1305635912385,44.9839
1305635972385,44.9394
1305636032385,44.9332
1305636092385,45.0596
1305636152385,44.8901
1305636212385,45.0156
1305636272385,44.9904
1305636332385,45.1661
1305636392385,45.0982
1305636452385,44.9438
1305636512385,45.0197
1305636572385,45.2161
1305636632385,44.9786
1305636692385,45.1215
1305636752385,45.1303
1305636812385,45.0855
1305636872385,45.0633
1305636932385,45.1728
1305636992385,45.1092
1305637052385,45.1236
1305637112385,45.3023
1305637172385,45.1925
1305637232395,45.0901
1305637292395,45.1749
1305637352395,45.2609
1305637412395,45.1944
1305637472395,45.1592
1305637532395,45.1758
1305637592395,45.0607
1305637652395,45.1091
1305637712395,45.1335
1305637772395,45.1287
1305637832395,45.0831
1305637892395,45.0184
1305637952395,45.0200
1305638012395,44.9738
1305638072395,44.9699
1305638132395,45.1172
1305638192395,45.0881
1305638252395,45.0355
1305638312395,44.9930
1305638372395,45.0788
1305638432395,45.0596
1305638492395,45.0410
1305638552395,44.9524
1305638612395,45.0366
1305638672395,45.0533
1305638732395,45.0480
1305638792395,45.0489
1305638852395,44.8938
1305638912395,45.0874
1305638972395,44.9226
1305639032395,44.9655
1305639092395,44.9398
1305639152395,44.9363
1305639212395,45.0985
1305639272395,44.9521
1305639332395,44.9257
1305639392395,44.8660
1305639452395,44.9367
1305639512395,45.0458
1305639572395,45.0040
1305639632395,44.8751
1305639692395,44.9276
1305639752395,44.8787
1305639812395,44.9357
1305639872395,44.9997
1305639932395,45.0042
1305639992395,44.8998
1305640052395,44.9144
1305640112395,44.9068
1305640172395,44.9764
1305640232395,45.0026
1305640292395,45.0873
1305640352395,44.9915
1305640412395,44.9717
1305640472395,45.0881
1305640532395,45.0763
1305640592395,45.0710
1305640652395,45.0177
1305640712395,45.0245
1305640772395,44.9419
1305640832404,44.8022
1305640892404,45.0236
1305640952404,45.0346
1305641012404,44.9730
1305641072404,44.9826
1305641132404,44.9273
1305641192404,44.9551
1305641252404,44.9626
1305641312404,45.0864
1305641372404,45.1254
1305641432404,45.0957
1305641492404,44.9503
1305641552404,44.9804
1305641612404,45.0254
1305641672404,45.0969
1305641732404,44.9139
1305641792404,44.8530
1305641852404,44.7804
1305641912404,44.9264
1305641972404,44.8534
1305642032404,44.9218
1305642092404,44.9930
1305642152404,44.7952
1305642212404,44.8880
1305642272404,44.8239
1305642332404,44.8320
1305642392404,44.9037
1305642452404,44.9831
1305642512404,44.8818
1305642572404,44.8393
1305642632404,44.9141
1305642692404,44.8525
1305642752404,44.8704
1305642812404,44.7993
1305642872404,44.8016
1305642932404,44.9108
1305642992404,44.9229
1305643052404,44.9542
1305643112404,44.8608
1305643172404,44.8067
1305643232404,44.6609
1305643292404,45.0357
1305643352404,44.8923
1305643412404,44.8874
1305643472404,44.9492
1305643532404,44.8288
1305643592404,44.9772
1305643652404,44.8576
1305643712404,44.8330
1305643772404,44.9535
1305643832404,44.9136
1305643892404,44.9224
1305643952404,44.8006
1305644012404,44.8015
1305644072404,44.9458
1305644132404,44.7523
1305644192404,44.8593
1305644252404,44.8802
1305644312404,44.7417
1305644372404,44.8261
1305644432414,44.9099
1305644492414,44.9266
1305644552414,44.9443
1305644612414,44.7974
1305644672414,44.8318
1305644732414,44.8867
1305644792414,44.8532
1305644852414,44.9210
1305644912414,44.8956
1305644972414,44.8667
1305645032414,44.8113
1305645092414,44.7898
1305645152414,44.8110
1305645212414,44.8358
1305645272414,44.8228
1305645332414,44.7981
1305645392414,44.8300
1305645452414,44.8075
1305645512414,44.7375
1305645572414,44.9337
1305645632414,44.8104
1305645692414,44.8712
1305645752414,44.8963
1305645812414,44.9311
1305645872414,44.8344
1305645932414,44.9186
1305645992414,44.8036
1305646052414,44.8887
1305646112414,44.8889
1305646172414,44.8662
1305646232414,44.8970
1305646292414,44.8416
1305646352414,44.8641
1305646412414,44.9312
1305646472414,44.9356
1305646532414,44.9076
1305646592414,44.7816
1305646652414,44.8933
1305646712414,44.8570
1305646772414,44.8362
1305646832414,44.8883
1305646892414,44.8066
1305646952414,44.9308
1305647012414,44.8440
1305647072414,44.8739
1305647132414,44.8473
1305647192414,44.9510
1305647252414,44.6951
1305647312414,45.0229
1305647372414,44.8338
1305647432414,44.8386
1305647492414,44.9891
1305647552414,44.8813
1305647612414,44.8190
1305647672414,44.7691
1305647732414,44.8244
1305647792414,44.9063
1305647852414,44.9981
1305647912414,44.9149
1305647972414,44.9640
1305648032423,44.8722
1305648092423,44.8773
1305648152423,45.0080
1305648212423,45.0735
1305648272423,45.0176
1305648332423,44.9753
1305648392423,45.0184
1305648452423,44.9951
1305648512423,45.0021
1305648572423,45.0096
1305648632423,45.0451
1305648692423,45.0016
1305648752423,45.0350
1305648812423,44.9991
1305648872423,44.9858
1305648932423,45.0442
1305648992423,44.9613
1305649052423,45.0809
1305649112423,44.9907
1305649172423,45.0526
1305649232423,44.9492
1305649292423,45.1414
1305649352423,45.1459
1305649412423,45.0629
1305649472423,44.9578
1305649532423,44.9958
1305649592423,45.0408
1305649652423,44.8631
1305649712423,45.0127
1305649772423,44.9034
1305649832423,44.9338
1305649892423,45.0575
1305649952423,45.0435
1305650012423,45.0672
1305650072423,44.9336
1305650132423,44.9242
1305650192423,44.8796
1305650252423,44.8823
1305650312423,45.0619
1305650372423,44.8923
1305650432423,45.0046
1305650492423,44.9781
1305650552423,44.8892
1305650612423,45.0393
1305650672423,44.9370
1305650732423,44.8910
1305650792423,45.0221
1305650852423,45.0083
1305650912423,44.9121
1305650972423,44.8014
1305651032423,44.7556
1305651092423,44.7966
1305651152423,44.8705
1305651212423,44.9800
1305651272423,44.8862
1305651332423,44.8813
1305651392423,44.6513
1305651452423,44.8463
1305651512423,44.7145
1305651572423,44.8237
1305651632433,44.9292
1305651692433,44.8396
1305651752433,44.7587
1305651812433,44.7927
1305651872433,44.8726
1305651932433,44.7357
1305651992433,44.6578
1305652052433,44.6706
1305652112433,44.7786
1305652172433,44.8793
1305652232433,44.6142
1305652292433,44.8054
1305652352433,44.7560
1305652412433,44.6489
1305652472433,44.8224
1305652532433,44.6376
1305652592433,44.6863
1305652652433,44.6574
1305652712433,44.7485
1305652772433,44.6216
1305652832433,44.7874
1305652892433,44.6270
1305652952433,44.5947
1305653012433,44.7078
1305653072433,44.6430
1305653132433,44.5415
1305653192433,44.7210
1305653252433,44.6166
1305653312433,44.6944
1305653372433,44.6799
1305653432433,44.5341
1305653492433,44.6228
1305653552433,44.6354
1305653612433,44.6219
1305653672433,44.7612
1305653732433,44.7305
1305653792433,44.7600
1305653852433,44.6631
1305653912433,44.5699
1305653972433,44.6387
1305654032433,44.6304
1305654092433,44.6512
1305654152433,44.7069
1305654212433,44.6997
1305654272433,44.6182
1305654332433,44.5734
1305654392433,44.6704
1305654452433,44.5708
1305654512433,44.5464
1305654572433,44.6079
1305654632433,44.4603
1305654692433,44.5079
1305654752433,44.6535
1305654812433,44.6091
1305654872433,44.5774
1305654932433,44.5334
1305654992433,44.5636
1305655052433,44.6437
1305655112433,44.5171
1305655172433,44.5041
1305655232443,44.6692
1305655292443,44.5919
1305655352443,44.5344
1305655412443,44.5985
1305655472443,44.6353
1305655532443,44.6015
1305655592443,44.6409
1305655652443,44.5434
1305655712443,44.5651
1305655772443,44.5984
1305655832443,44.5851
1305655892443,44.5721
1305655952443,44.5409
1305656012443,44.4650
1305656072443,44.4422
1305656132443,44.5031
1305656192443,44.5636
1305656252443,44.4605